This is the latest recevied weather packets stored in our database for station/object JF2ZGN-13. If no packets are shown the sender has not sent any weather packets the latest 1 day(s).
| Time | Temp. | Humidity | Pressure | Rain* | Wind** | Luminosity | Snow |
|---|---|---|---|---|---|---|---|
| 1778040470 | 11.67° C | 81% | 912.2 hPa | 0 mm | - | - | - |
| 1778039869 | 11.11° C | 81% | 912.4 hPa | 0 mm | - | - | - |
| 1778038668 | 11.11° C | 81% | 912.4 hPa | 0 mm | - | - | - |
| 1778038068 | 11.11° C | 80% | 912.5 hPa | 0 mm | - | - | - |
| 1778037467 | 11.11° C | 77% | 912.6 hPa | 0 mm | - | - | - |
| 1778036867 | 11.11° C | 76% | 912.8 hPa | 0 mm | - | - | - |
| 1778036266 | 11.11° C | 75% | 912.8 hPa | 0 mm | - | - | - |
| 1778035666 | 11.11° C | 75% | 912.8 hPa | 0 mm | - | - | - |
| 1778035066 | 11.11° C | 73% | 912.9 hPa | 0 mm | - | - | - |
| 1778034465 | 11.11° C | 72% | 912.9 hPa | 0 mm | - | - | - |
| 1778033864 | 11.11° C | 74% | 913 hPa | 0 mm | - | - | - |
| 1778033263 | 10.56° C | 75% | 913.1 hPa | 0 mm | - | - | - |
| 1778032663 | 10.56° C | 73% | 913.2 hPa | 0 mm | - | - | - |
| 1778032062 | 10.56° C | 74% | 913.4 hPa | 0 mm | - | - | - |
| 1778031461 | 10.56° C | 76% | 913.5 hPa | 0 mm | - | - | - |
| 1778030861 | 10.56° C | 75% | 913.5 hPa | 0 mm | - | - | - |
| 1778030262 | 10.56° C | 75% | 913.6 hPa | 0 mm | - | - | - |
| 1778029661 | 10.56° C | 74% | 913.5 hPa | 0 mm | - | - | - |
| 1778029058 | 10° C | 73% | 913.9 hPa | 0 mm | - | - | - |
| 1778027258 | 10° C | 82% | 913.8 hPa | 0 mm | - | - | - |
| 1778023054 | 10° C | 81% | 913.6 hPa | 0 mm | - | - | - |
| 1778018851 | 9.44° C | 84% | 913.4 hPa | 0 mm | - | - | - |
| 1778017651 | 9.44° C | 88% | 913.4 hPa | 0 mm | - | - | - |
| 1778015849 | 9.44° C | 94% | 913.8 hPa | 0 mm | - | - | - |
* Rain since midnight (hover to see other rain measurements)
** Current wind speed in m/s (hover to see current wind gust speed)